TimeEDT,TemperatureF,Dew PointF,Humidity,Sea Level PressureIn,VisibilityMPH,Wind Direction,Wind SpeedMPH,Gust SpeedMPH,PrecipitationIn,Events,Conditions,WindDirDegrees,DateUTC
12:15 AM,61.2,45.9,57,29.99,10.0,East,5.8,-,N/A,,Clear,90,2013-05-04 04:15:00
12:35 AM,62.6,42.3,47,29.99,10.0,East,5.8,-,N/A,,Clear,90,2013-05-04 04:35:00
12:55 AM,62.2,41.2,46,29.99,10.0,East,5.8,-,N/A,,Clear,90,2013-05-04 04:55:00
1:15 AM,63.0,40.1,43,29.99,10.0,East,6.9,-,N/A,,Clear,100,2013-05-04 05:15:00
1:35 AM,63.0,39.7,42,29.99,10.0,East,5.8,-,N/A,,Clear,100,2013-05-04 05:35:00
1:55 AM,62.8,39.4,42,29.99,10.0,ESE,5.8,-,N/A,,Clear,110,2013-05-04 05:55:00
2:15 AM,62.2,39.4,43,29.99,10.0,ESE,4.6,-,N/A,,Clear,110,2013-05-04 06:15:00
2:36 AM,61.2,39.7,45,29.99,10.0,ESE,6.9,-,N/A,,Clear,110,2013-05-04 06:36:00
2:55 AM,61.3,39.6,45,29.99,10.0,East,6.9,-,N/A,,Clear,100,2013-05-04 06:55:00
3:15 AM,60.4,39.6,46,29.99,10.0,ESE,6.9,-,N/A,,Clear,110,2013-05-04 07:15:00
3:35 AM,61.3,39.2,44,29.99,10.0,ESE,6.9,-,N/A,,Clear,110,2013-05-04 07:35:00
3:55 AM,60.6,39.2,45,29.99,10.0,ESE,6.9,-,N/A,,Clear,110,2013-05-04 07:55:00
4:15 AM,60.1,39.6,47,29.99,10.0,ESE,6.9,-,N/A,,Clear,110,2013-05-04 08:15:00
4:35 AM,59.7,39.7,48,29.99,10.0,ESE,6.9,-,N/A,,Clear,120,2013-05-04 08:35:00
4:55 AM,59.4,39.9,49,30.00,10.0,ESE,6.9,-,N/A,,Clear,110,2013-05-04 08:55:00
5:15 AM,58.3,40.3,51,30.00,10.0,ESE,6.9,-,N/A,,Clear,120,2013-05-04 09:15:00
5:35 AM,58.5,40.3,51,30.00,10.0,ESE,5.8,-,N/A,,Clear,120,2013-05-04 09:35:00
5:55 AM,57.9,40.3,52,30.00,10.0,ESE,5.8,-,N/A,,Clear,120,2013-05-04 09:55:00
6:15 AM,57.2,40.3,53,30.01,10.0,ESE,6.9,-,N/A,,Clear,120,2013-05-04 10:15:00
6:36 AM,57.2,40.3,53,30.01,10.0,ESE,5.8,-,N/A,,Clear,110,2013-05-04 10:36:00
6:55 AM,57.2,40.6,54,30.02,10.0,ESE,6.9,-,N/A,,Clear,120,2013-05-04 10:55:00
7:15 AM,57.6,40.6,53,30.02,10.0,ESE,6.9,-,N/A,,Clear,110,2013-05-04 11:15:00
7:35 AM,57.7,41.2,54,30.02,10.0,ESE,6.9,-,N/A,,Clear,110,2013-05-04 11:35:00
7:55 AM,58.1,41.9,55,30.03,10.0,ESE,8.1,-,N/A,,Clear,120,2013-05-04 11:55:00
8:15 AM,58.8,42.3,54,30.03,10.0,ESE,6.9,-,N/A,,Clear,120,2013-05-04 12:15:00
8:35 AM,59.4,42.4,54,30.03,10.0,ESE,8.1,-,N/A,,Clear,120,2013-05-04 12:35:00
8:55 AM,60.3,43.0,53,30.03,10.0,SE,8.1,-,N/A,,Clear,130,2013-05-04 12:55:00
9:15 AM,61.3,43.5,52,30.03,10.0,ESE,9.2,16.1,N/A,,Clear,120,2013-05-04 13:15:00
9:35 AM,62.1,44.1,52,30.04,10.0,SE,11.5,-,N/A,,Clear,130,2013-05-04 13:35:00
9:55 AM,62.8,44.4,51,30.04,10.0,SE,8.1,16.1,N/A,,Clear,130,2013-05-04 13:55:00
10:16 AM,63.5,44.8,51,30.04,10.0,SE,8.1,17.3,N/A,,Clear,130,2013-05-04 14:16:00
10:35 AM,63.9,44.8,50,30.04,10.0,SE,8.1,-,N/A,,Clear,130,2013-05-04 14:35:00
10:55 AM,64.6,45.0,49,30.04,10.0,ESE,10.4,-,N/A,,Clear,120,2013-05-04 14:55:00
11:15 AM,66.2,45.5,47,30.04,10.0,ESE,10.4,-,N/A,,Clear,120,2013-05-04 15:15:00
11:35 AM,65.8,45.7,48,30.04,10.0,ESE,10.4,-,N/A,,Clear,110,2013-05-04 15:35:00
11:55 AM,66.7,45.7,47,30.04,10.0,East,11.5,-,N/A,,Clear,100,2013-05-04 15:55:00
12:15 PM,66.7,45.0,45,30.04,10.0,ESE,11.5,17.3,N/A,,Clear,120,2013-05-04 16:15:00
12:35 PM,68.2,46.4,46,30.04,10.0,SE,9.2,16.1,N/A,,Clear,130,2013-05-04 16:35:00
12:55 PM,68.2,45.0,43,30.04,10.0,East,11.5,-,N/A,,Clear,100,2013-05-04 16:55:00
1:16 PM,68.9,44.8,42,30.04,10.0,East,12.7,18.4,N/A,,Clear,90,2013-05-04 17:16:00
1:40 PM,69.4,44.1,40,30.03,10.0,East,13.8,21.9,N/A,,Clear,100,2013-05-04 17:40:00
1:55 PM,69.8,44.6,40,30.02,10.0,ESE,13.8,18.4,N/A,,Clear,120,2013-05-04 17:55:00
2:15 PM,70.7,43.9,38,30.02,10.0,ESE,12.7,21.9,N/A,,Clear,120,2013-05-04 18:15:00
2:36 PM,71.4,44.2,38,30.01,10.0,ESE,8.1,21.9,N/A,,Clear,120,2013-05-04 18:36:00
2:55 PM,71.4,43.5,37,30.01,10.0,ESE,12.7,18.4,N/A,,Clear,120,2013-05-04 18:55:00
3:15 PM,72.0,44.6,37,30.00,10.0,ESE,12.7,18.4,N/A,,Clear,110,2013-05-04 19:15:00
3:35 PM,72.9,43.9,35,29.99,10.0,ESE,11.5,20.7,N/A,,Clear,120,2013-05-04 19:35:00
3:55 PM,72.9,42.3,33,29.99,10.0,East,10.4,20.7,N/A,,Clear,90,2013-05-04 19:55:00
4:15 PM,73.6,43.7,34,29.98,10.0,ESE,12.7,21.9,N/A,,Clear,110,2013-05-04 20:15:00
4:35 PM,74.3,39.6,29,29.98,10.0,East,12.7,20.7,N/A,,Clear,90,2013-05-04 20:35:00
4:55 PM,74.3,37.2,26,29.98,10.0,ESE,13.8,17.3,N/A,,Clear,120,2013-05-04 20:55:00
5:15 PM,74.3,38.1,27,29.97,10.0,ESE,9.2,16.1,N/A,,Clear,110,2013-05-04 21:15:00
5:35 PM,74.5,34.7,23,29.98,10.0,ESE,12.7,19.6,N/A,,Clear,120,2013-05-04 21:35:00
5:55 PM,74.3,33.3,22,29.98,10.0,ESE,12.7,18.4,N/A,,Clear,110,2013-05-04 21:55:00
6:15 PM,73.8,31.8,21,29.98,10.0,ESE,5.8,-,N/A,,Clear,120,2013-05-04 22:15:00
6:35 PM,73.6,28.9,19,29.98,10.0,East,9.2,16.1,N/A,,Clear,100,2013-05-04 22:35:00
6:55 PM,73.2,30.7,21,29.98,10.0,ESE,8.1,-,N/A,,Clear,110,2013-05-04 22:55:00
7:16 PM,72.5,30.0,21,29.99,10.0,SE,9.2,-,N/A,,Clear,140,2013-05-04 23:16:00
7:35 PM,71.8,28.9,20,29.99,10.0,SE,5.8,-,N/A,,Clear,140,2013-05-04 23:35:00
7:55 PM,70.3,29.5,22,30.00,10.0,ESE,10.4,-,N/A,,Clear,120,2013-05-04 23:55:00
8:15 PM,68.5,30.7,25,30.01,10.0,ESE,6.9,-,N/A,,Clear,120,2013-05-05 00:15:00
8:35 PM,66.7,32.2,28,30.02,10.0,SE,6.9,-,N/A,,Clear,130,2013-05-05 00:35:00
8:55 PM,65.8,33.1,30,30.02,10.0,SE,5.8,-,N/A,,Clear,130,2013-05-05 00:55:00
9:15 PM,63.9,35.1,34,30.03,10.0,ESE,3.5,-,N/A,,Clear,120,2013-05-05 01:15:00
9:35 PM,62.4,35.8,37,30.04,10.0,ESE,4.6,-,N/A,,Clear,120,2013-05-05 01:35:00
9:55 PM,61.7,35.6,38,30.04,10.0,ESE,3.5,-,N/A,,Clear,110,2013-05-05 01:55:00
10:15 PM,61.9,35.8,38,30.05,10.0,Calm,Calm,-,N/A,,Clear,0,2013-05-05 02:15:00
10:35 PM,58.3,38.5,48,30.05,10.0,Calm,Calm,-,N/A,,Clear,0,2013-05-05 02:35:00
10:55 PM,56.3,39.9,54,30.05,10.0,Calm,Calm,-,N/A,,Clear,0,2013-05-05 02:55:00
11:15 PM,55.8,39.0,53,30.05,10.0,Calm,Calm,-,N/A,,Clear,0,2013-05-05 03:15:00
11:35 PM,55.4,39.6,55,30.05,10.0,Calm,Calm,-,N/A,,Clear,0,2013-05-05 03:35:00
11:55 PM,56.3,39.4,53,30.04,10.0,East,3.5,-,N/A,,Clear,100,2013-05-05 03:55:00